METOP-C

Last updated on Wed Sep 17 2025 00:02:23 GMT+0000 (Coordinated Universal Time)

1 43689U 18087A 25259.46992573 .00000092 00000+0 61922-4 0 9996 2 43689 98.7062 318.5156 0000747 167.3272 192.7924 14.21491862355947
UTC large
Height (km)
Speed (km/s)
/
Latitude / Longitude
Inclination (degrees)
Orbital Period (minutes)
Azimuth
Elevation
Range (km)
Doppler Factor

Next 0 passes for location: London (51.5072 / 0.1276)

Sorry there are no passes over London.